www.pogodaiklimat.ru

Погода и климат >> Архив погоды >> Китай >> Xin Barag Youqi


ПОГОДА в Xin Barag Youqi

  • Прогноз погоды в Xin Barag Youqi
  • Монитор погоды в Xin Barag Youqi
  • Климат города

АРХИВ ПОГОДЫ в Xin Barag Youqi

Время (UTC), дата Ветер
(напр.,м/с)
 
Видим.   Явления Облачность Т
(С)
Тd
(С)
f
(%)
Тe
(С)
Тes
(С)
Комфортность P
(гПа)
Po
(гПа)
Тmin
(С)
Tmax
(С)
R
(мм)
R24
(мм)
S
(см)
06 15.10 С 5 30 км 1/1
[]
+9.7 -7.5 29 +7 +9 1024.5 1047.4 -1.9
09 15.10 С 3 30 км ясно +8.0 -8.1 31 +6 +6 1024.7 1025.0
12 15.10 СЗ 3 30 км 1/1
[]
+0.2 -8.5 52 -4 -4 1026.2 959.3
15 15.10 З 3 30 км ?/? -1.7 -8.4 60 -6 -6 1026.0 1026.0
18 15.10 З 2 30 км н/о -3.7 -8.7 68 -8 -8 1026.2 959.8 +9.9
21 15.10 СЗ 2 30 км ?/? -5.3 -9.4 73 -9 -9 1026.6 1027.0
00 16.10 СЗ 1 30 км ясно -2.1 -7.6 66 -4 -3 1027.6 960.2
03 16.10 С 2 30 км 3/3
[]
+6.3 -4.2 47 +5 +8 1026.6 937.1
06 16.10 С 1 30 км ясно +9.5 -9.5 25 +10 +15 1024.8 958.5 -6.0
09 16.10 ЮВ 2 16 км 1/1
[]
+8.0 -9.4 28 +7 +7 1024.6 1025.0
12 16.10 СЗ 4 30 км 1/1
[]
-0.1 -10.9 44 -5 -5 1026.1 1047.2
15 16.10 СЗ 4 30 км ?/? -1.0 -10.4 49 -6 -6 1025.3 1025.0
18 16.10 З 4 30 км н/о -3.6 -9.4 64 -9 -9 1025.1 958.8 +10.4
21 16.10 З 3 30 км ?/? -4.8 -9.1 72 -10 -10 1025.4 1025.0
00 17.10 З 3 30 км 3/3
[]
-3.2 -9.0 64 -8 -8 1026.8 959.3
03 17.10 ЮЗ 2 30 км 1/1
[]
+8.5 -7.2 32 +7 +12 1025.1 936.3
06 17.10 ЮЗ 3 30 км ясно +11.3 -10.8 20 +10 +14 1023.2 957.2 -6.8
09 17.10 З 3 30 км 1/1
[]
+9.2 -12.0 21 +8 +8 1023.0 1023.0
12 17.10 З 1 30 км 1/1
[]
+2.3 -9.6 41 +2 +2 1024.4 957.3
15 17.10 З 1 30 км ?/? -1.0 -11.4 45 -2 -2 1023.9 935.5
18 17.10 З 1 30 км ?/? -3.7 -12.4 51 -5 -5 1023.5 957.5 +11.8
21 17.10 СЗ 2 30 км ?/? -4.4 -11.0 60 -8 -8 1022.7 1023.0
00 18.10 штиль 0 30 км ясно -2.1 -10.6 52 -3 -2 1024.4 957.4
03 18.10 СЗ 2 30 км ясно +7.0 -8.2 33 +6 +10 1023.6 934.7
06 18.10 Ю 2 30 км ясно +12.4 -6.6 26 +12 +16 1021.8 956.0 -5.6
09 18.10 В 2 н/о 3/3
[]
+11.6 -5.8 29 +11 +11 1021.6 1022.0
12 18.10 СЗ 1 15 км 1/1
[]
+1.0 -8.3 50 -0 -0 1023.3 956.3
18 18.10 З 3 30 км ?/? -1.3 -6.2 69 -6 -6 1022.1 956.5 +13.8
21 18.10 З 4 30 км ?/? -1.8 -5.8 74 -7 -7 1021.9 1022.0
00 19.10 З 3 30 км 1/1
[]
+1.0 -4.4 67 -3 -3 1023.8 957.1
03 19.10 З 5 30 км 1/1
[]
+11.4 -2.8 37 +9 +11 1021.8 934.4
06 19.10 З 5 30 км ясно +18.4 -3.7 22 +18 +20 1019.8 955.1 -2.9
09 19.10 З 4 30 км ясно +14.1 -6.2 24 +13 +13 1019.9 1020.0
12 19.10 З 4 30 км ясно +5.3 -3.8 52 +2 +2 1021.1 1041.7
15 19.10 З 4 30 км н/о +0.7 -6.0 61 -4 -4 1020.4 1020.0
18 19.10 С 1 30 км н/о -1.3 -10.1 51 -3 -3 1019.6 954.9 +19.0
21 19.10 ЮЗ 1 30 км н/о -3.3 -10.0 60 -5 -5 1019.4 1019.0
00 20.10 З 2 30 км ясно -1.7 -6.6 69 -5 -5 1020.3 954.0
03 20.10 Ю 2 29 км 4/4
[]
+9.9 -6.0 32 +9 +12 1018.4 930.8
06 20.10 Ю 5 17 км 5/5
[]
+14.9 0.0 36 +14 +15 1015.3 950.5 -4.5
09 20.10 Ю 4 24 км ?/? +14.8 -2.2 31 +14 +14 1014.1 1014.0
12 20.10 З 2 17 км 5/5
[]
+9.3 -1.1 48 +8 +8 1014.1 1035.0
15 20.10 ЮЗ 2 18 км ?/? +5.0 -1.0 65 +3 +3 1013.2 1013.0
18 20.10 З 2 12 км ?/? +4.4 +0.9 78 +2 +2 1011.7 947.7 +15.9
21 20.10 ЮЗ 4 7000 м ?/? +3.7 +1.6 86 -1 -1 1010.5 1011.0
00 21.10 З 4 8000 м 9/9
[]
+5.1 +2.3 82 +1 +1 1011.0 946.5
03 21.10 ЮЗ 5 11 км 9/9
[]
+10.2 +3.0 61 +7 +8 1009.7 1010.0
06 21.10 З 5 15 км 9/9
[]
+13.9 -0.5 37 +12 +13 1007.2 1029.9 +2.4
09 21.10 З 3 15 км 9/9
[]
+12.0 -2.6 36 +11 +11 1007.0 1007.0
12 21.10 СВ 2 14 км 9/9
[]
+7.1 -3.4 47 +6 +6 1007.1 942.6
15 21.10 С 1 15 км ?/? +5.6 -4.3 49 +5 +5 1005.0 919.9
18 21.10 В 1 13 км н/о +4.7 -3.8 54 +4 +4 1003.1 939.6 +15.1
21 21.10 З 3 16 км ?/? +6.6 -2.0 54 +4 +4 1002.3 1002.0
00 22.10 ЮВ 1 12 км 9/9
[]
+2.9 -2.6 67 +2 +2 1003.3 938.8
03 22.10 ЮЗ 4 22 км 9/9
[]
+6.1 -5.2 44 +3 +3 1003.0 1003.0

 

Местоположение метеостанции Xin Barag Youqi (Китай): широта 48.67 долгота 116.81 высота над уровнем моря 556 м.

В архиве по умолчанию представлена погода в Xin Barag Youqi за последнюю неделю. Архивные данные за месяц целиком и за предыдущие месяцы, начиная с января 2011 года, Вы можете получить, выбрав интересующий диапазон дат из раскрывающегося списка и нажав кнопку "Ввод!".


*Определитесь, кто Вы:
робот инопланетянин человек

Внимание! Время в таблицах - всемирное. Для получения местного времени необходимо прибавить поправку, которая в Xin Barag Youqi равна 8 ч.

Смотрите также архив погоды в соседних городах и на ближайших метеорологических станциях:

Погода в Забайкальске (Забайкальский край, Россия) (113 км)
Погода в Соловьевске (Забайкальский край, Россия) (159 км)
Погода в Кайластуе (Забайкальский край, Россия) (168 км)
Погода в Khalkh-Gol (Монголия) (177 км)
Погода в Choibalsan (Монголия) (179 км)
Погода в Matad (Монголия) (189 км)
Погода в Борзе (Забайкальский край, Россия) (194 км)
Погода в Dashbalbar (Монголия) (201 км)
Погода в Hailar (Китай) (223 км)
Погода в Бырке (Забайкальский край, Россия) (236 км)

Пояснения к столбцам:

Ветер - указаны скорость ветра в м/с - средняя за 10 мин, порывы в срок и между сроками (в фигурных скобках) и направление, откуда дует ветер: С - северный, СВ - северо-восточный, В - восточный, ЮВ - юго-восточный, Ю - южный, ЮЗ - юго-западный, З - западный, СЗ - северо-западный.
Видимость - горизонтальная дальность видимости в метрах или километрах. При видимости от 1 до 10 км при отсутствии осадков обычно наблюдается дымка, при ухудшении видимости до 1 км и менее - туман. В сухую погоду видимость может ухудшаться дымом, пылью или мглою.
Явления - указаны атмосферные явления, наблюдавшиеся в срок или в последний час перед сроком; фигурными скобками обозначены явления, наблюдавшиеся между сроками (за 1-3 часа до срока); квадратными скобками обозначены град или гололедные отложения с указанием их диаметра в мм.
Облачность - указаны через наклонную черту общая и нижняя облачность в баллах и высота нижней границы облаков в метрах; квадратными скобками обозначены формы облаков: Ci - перистые, Cs - перисто-слоистые, Cc - перисто-кучевые, Ac - высококучевые, As - высокослоистые, Sc - слоисто-кучевые, Ns - слоисто-дождевые, Cu - кучевые, Cb - кучево-дождевые. Подробнее классификацию облаков см. в Атласе облаков (PDF).
T - Температура воздуха - температура, измеренная на высоте 2 м над землей.
Td - Температура точки росы - температура, при понижении до которой содержащийся в воздухе водяной пар достигнет насыщения.
f - Относительная влажность воздуха - влажноcть воздуха, измеренная на высоте 2 м над землей.
Te - Эффективная температура - температура, которую ощущает одетый по сезону человек в тени. Характеристика душности погоды. При расчете учитывается влияние влажности воздуха и скорости ветра на теплоощущения человека.
Tes - Эффективная температура на солнце - температура, которую ощущает человек, с поправкой на солнечный нагрев. Характеристика знойности погоды. Зависит от высоты солнца над горизонтом, облачности и скорости ветра. Ночью, в пасмурную погоду, а также при ветре 12 м/с и более поправка равна нулю.
P - Атмосферное давление - приведенное к уровню моря атмосферное давление.
Po - Атмосферное давление - измеренное на уровне метеостанции атмосферное давление.
Tmin - Минимальная температура - минимум температуры воздуха на высоте 2 м над землей.
Tmax - Максимальная температура - максимум температуры воздуха на высоте 2 м над землей.
R - Количество осадков - Количество выпавших осадков за период времени, мм. При наведении курсора мыши на число - период времени, за который выпало указанное количество осадков.
R24 - Количество осадков - Количество выпавших осадков за 24 часа, мм.
S - Снежный покров - Высота снежного покрова, см. При наведении курсора мыши на число - состояние снежного покрова и степень покрытия местности в баллах.